Martinsburg, WV

1:20 AM EST on December 12, 2019 (GMT -0500)
Eastern W Va Regional-Shepherd

Weather History for KMRB - October, 2019

Change the Weather History Date:

Friday, October 18, 2019

  Actual Average Record
Temperature  
Mean Temperature 48 °F 53 °F  
Max Temperature 61 °F 65 °F 87 °F (1928)
Min Temperature 36 °F 41 °F 27 °F (1982)
Degree Days  
Heating Degree Days 16 12  
Month to date heating degree days 130 171  
Since 1 July heating degree days 142 262  
Cooling Degree Days 0 0  
Month to date cooling degree days 37 8  
Year to date cooling degree days 1280 893  
Moisture  
Dew Point 35 °F    
Average Humidity 57    
Maximum Humidity 89    
Minimum Humidity 39    
Precipitation  
Precipitation 0.00 in 0.10 in 2.47 in (1996)
Month to date precipitation 1.80 1.79  
Year to date precipitation 36.70 31.60  
Sea Level Pressure  
Sea Level Pressure 29.98 in    
Wind  
Wind Speed 9 mph ()    
Max Wind Speed 22 mph    
Max Gust Speed 30 mph    
Visibility 9.4 miles    
Events      
T = Trace of Precipitation, MM = Missing Value Source: Averaged Metar Reports

Daily Weather History Graph

Daily Weather History Graph

Search for Another Location

Airport or City:

Astronomy

Oct. 18, 2019 Rise Set
Actual Time 7:24 AM EDT 6:28 PM EDT
Civil Twilight 6:57 AM EDT 6:56 PM EDT
Nautical Twilight 6:26 AM EDT 7:27 PM EDT
Astronomical Twilight 5:55 AM EDT 7:58 PM EDT
Moon 9:45 PM EDT (10/18) 11:54 AM EDT (10/18)
Length of Visible Light 11h 58m
Length of Day
11h 04m
Waning Gibbous, 79% of the Moon is Illuminated
Oct 18
Waning Gibbous
Oct 21
Last Quarter
Oct 27
New
Nov 4
First Quarter
Nov 12
Full

Hourly Weather History & Observations

Time (EDT) Temp. Windchill Dew Point Humidity Pressure Visibility Wind Dir Wind Speed Gust Speed Precip Events Conditions
12:53 AM 48.9 °F - 32.0 °F 52% 29.88 in 10.0 mi WNW 10.4 mph - N/A   Clear
1:53 AM 48.9 °F - 33.1 °F 54% 29.88 in 10.0 mi NW 10.4 mph 23.0 mph N/A   Clear
2:53 AM 48.0 °F - 34.0 °F 58% 29.89 in 10.0 mi WNW 15.0 mph - N/A   Partly Cloudy
3:53 AM 46.9 °F - 34.0 °F 61% 29.90 in 10.0 mi NW 8.1 mph - N/A   Clear
4:53 AM 46.9 °F - 34.0 °F 61% 29.91 in 10.0 mi NW 8.1 mph - N/A   Scattered Clouds
5:53 AM 46.0 °F 41.9 °F 34.0 °F 63% 29.93 in 10.0 mi NW 8.1 mph - N/A   Clear
6:53 AM 46.0 °F 40.6 °F 34.0 °F 63% 29.94 in 10.0 mi NNW 11.5 mph 23.0 mph N/A   Clear
7:53 AM 46.0 °F 42.5 °F 34.0 °F 63% 29.96 in 10.0 mi Variable 6.9 mph - N/A   Clear
8:53 AM 48.9 °F - 35.1 °F 59% 29.98 in 10.0 mi NW 15.0 mph 24.2 mph N/A   Clear
9:35 AM 50.0 °F - 36.0 °F 59% 29.99 in 1.8 mi NW 16.1 mph 20.7 mph N/A   Haze
9:46 AM 51.1 °F - 36.0 °F 56% 29.99 in 10.0 mi NNW 11.5 mph 23.0 mph N/A   Clear
9:53 AM 51.1 °F - 36.0 °F 56% 29.99 in 10.0 mi NNW 13.8 mph - N/A   Clear
10:53 AM 53.1 °F - 36.0 °F 52% 30.00 in 10.0 mi NW 13.8 mph - N/A   Overcast
11:53 AM 55.9 °F - 36.0 °F 47% 30.00 in 10.0 mi NNW 16.1 mph 29.9 mph N/A   Clear
12:53 PM 57.0 °F - 36.0 °F 45% 30.00 in 1.2 mi WNW 11.5 mph 20.7 mph N/A   Haze
1:02 PM 57.0 °F - 36.0 °F 45% 30.00 in 10.0 mi NNW 13.8 mph - N/A   Partly Cloudy
1:53 PM 59.0 °F - 36.0 °F 42% 29.99 in 10.0 mi West 11.5 mph 20.7 mph N/A   Clear
2:53 PM 59.0 °F - 36.0 °F 42% 29.97 in 10.0 mi WNW 13.8 mph 24.2 mph N/A   Clear
3:53 PM 60.1 °F - 36.0 °F 41% 29.98 in 10.0 mi WNW 13.8 mph 25.3 mph N/A   Clear
4:53 PM 59.0 °F - 36.0 °F 42% 29.99 in 10.0 mi WNW 13.8 mph - N/A   Clear
5:53 PM 55.9 °F - 36.0 °F 47% 30.00 in 10.0 mi NW 12.7 mph - N/A   Clear
6:53 PM 53.1 °F - 35.1 °F 50% 30.02 in 10.0 mi NW 5.8 mph - N/A   Clear
7:53 PM 50.0 °F - 36.0 °F 59% 30.04 in 10.0 mi NW 4.6 mph - N/A   Clear
8:53 PM 44.1 °F - 36.0 °F 73% 30.06 in 10.0 mi Calm Calm - N/A   Clear
9:53 PM 41.0 °F - 36.0 °F 82% 30.08 in 10.0 mi Calm Calm - N/A   Clear
10:53 PM 39.9 °F - 35.1 °F 83% 30.08 in 10.0 mi Calm Calm - N/A   Clear
11:53 PM 37.0 °F - 34.0 °F 89% 30.07 in 10.0 mi Calm Calm - N/A   Clear